Regional Weather Roundup
Issued by NWS Grand Forks, ND

Home | Current Version | Previous Version | Graphics & Text | Print | Product List | Glossary On
Versions: 1 2 3 4 5 6 7 8 9 10 11 12 13 14 15 16 17 18 19 20 21 22 23 24 25 26 27 28 29 30 31 32 33 34 35 36 37 38 39 40 41 42 43 44 45 46 47 48 49 50
685
ASUS43 KFGF 261731
RWRFGF
PRAIRIE TO PINES  WEATHER ROUNDUP
NATIONAL WEATHER SERVICE EASTERN NORTH DAKOTA/GRAND FORKS ND
1100 AM CST SUN FEB 26 2017

 **SATELLITE DATA USED TO AUGMENT SKY COVER AT AUTOMATED STATIONS**
 *****  WEATHER ACROSS EASTERN NORTH DAKOTA  *****

CITY           SKY/WX    TMP DP  RH WIND       PRES   REMARKS
GRAND FORKS    FAIR      13   1  59 W6        29.86R WCI   4
GRAND FRKS AFB FAIR      14   3  59 W8        29.85R WCI   3
DEVILS LAKE    FAIR       5   2  87 W6        29.81R WCI  -6
FARGO          FAIR      16   9  74 NW7       29.86R WCI   6
WAHPETON ARPT  FAIR      18   7  62 NW8       29.88R WCI   7
$$

 ***** WEATHER ACROSS CENTRAL AND WESTERN NORTH DAKOTA  *****

CITY           SKY/WX    TMP DP  RH WIND       PRES   REMARKS
BISMARCK       CLOUDY    18  11  74 SW5       29.80R WCI  11
MINOT          FAIR      15   8  73 SW7       29.77R WCI   5
JAMESTOWN      PTSUNNY   18   8  65 CALM      29.80R
MINOT AFB      FAIR      14   8  76 W5        29.77R WCI   7
GARRISON         N/A     13  11  92 CALM      29.76S
WILLISTON      CLOUDY    19  13  77 CALM      29.75R
DICKINSON      FAIR      26  19  74 W14       29.66S WCI  14
HETTINGER      FAIR      30  20  66 W20       29.71S WCI  17
$$

 *****  OTHER AIRPORT OBSERVATIONS IN OUR AREA  *****

CITY           SKY/WX    TMP DP  RH WIND       PRES   REMARKS
WALHALLA       NOT AVBL
GRAFTON AIRPOR FAIR      12   5  73 SW7       29.86S WCI   2
VALLEY CITY AR FAIR      18  10  73 W7        29.84R WCI   8
CANDO          NOT AVBL
CAVALIER APRT    N/A     16   5  62 W7        29.83R WCI   6
GWINNER        FAIR      21  14  73 NE6       29.85S WCI  14
SHEYENNE NWR     N/A     19   7  58 N3        29.95S
ROLLA          FAIR      14   5  67 W8        29.75S WCI   3
 ***** THE ABOVE OBSERVATIONS ARE NON NWS ARE NOT QUALITY
       CONTROLLED AND MAY MIS-REPORT RAIN FOR SNOW...
$$

  *****  WEATHER ACROSS NORTHERN MINNESOTA  *****

CITY           SKY/WX    TMP DP  RH WIND       PRES   REMARKS
FLAG ISLAND    PTSUNNY   12   1  62 NW10      29.76S WCI  -1
WARROAD        LGT SNOW  12   3  67 SW13      29.79R VSB 3/4 WCI  -3
ROSEAU         FAIR      14   5  67 W8G17     29.80R WCI   3
HALLOCK        FAIR      10   3  72 W5        29.83S WCI   2
THF RVR FALLS    N/A    N/A N/A N/A MISG        N/A
BAUDETTE       FAIR      12   0  58 NW13      29.77R WCI  -3
WASKISH        FAIR      14   5  67 SW7       29.79R WCI   4
CROOKSTON      FAIR      10   7  85 W6        29.86S WCI   1
STEPHEN NDAWN    N/A     12   5  73 W5          N/A  WCI   4
GREENBUSH NDAW   N/A     10   5  79 W9          N/A  WCI  -2
$$
  *****  WEATHER ACROSS CENTRAL AND WEST MINNESOTA  *****

CITY           SKY/WX    TMP DP  RH WIND       PRES   REMARKS
FOSSTON        FAIR      18   3  53 W5        29.82R WCI  11
BEMIDJI        FAIR      15   5  64 NW6       29.78R WCI   6
PARK RAPIDS    FAIR      17   5  59 NW12      29.77R WCI   4
ELBOW LAKE     FAIR      14  10  83 W12       29.85R WCI   0
WADENA         FAIR      18   9  68 NW12      29.79R WCI   5
DETROIT LAKES  FLURRIES  16  10  79 NW9       29.82R WCI   4
MOORHEAD       FAIR      14   5  67 NW8       29.87S WCI   3
FERGUS FALLS   FAIR      14  12  92 NW9       29.90R WCI   2
MORRIS MN      FAIR      21  12  68 N15       29.84R WCI   8
STAPLES        FAIR      19  10  68 NW9       29.78R WCI   9
$$
  *****  WEATHER ELSEWHERE ACROSS MINNESOTA  *****

CITY           SKY/WX    TMP DP  RH WIND       PRES   REMARKS
DULUTH         LGT SNOW  19  12  74 NW17G24   29.69R WCI   4
INTRNTL FALLS  FAIR      13  -1  54 NW12      29.75R WCI  -1
ELY            FLURRIES  14   7  73 NW13G20   29.68R WCI   0
CLOQUET        FLURRIES  19  12  73 NW14G20   29.71R WCI   6
WHEATON        FAIR      18   9  68 NW9       29.89S WCI   6
BRAINERD       FAIR      20  12  71 N8        29.77R WCI  10
HIBBING        FAIR      13   4  67 NW17      29.72R WCI  -4
ALEXANDRIA     FAIR      22  10  60 NW14G21   29.80R WCI   9
SAINT CLOUD    PTSUNNY   33  20  58 NW20      29.75R WCI  21
MINNEAPOLIS    FAIR      34  22  61 W14       29.78S WCI  25
$$

  *****  WEATHER ACROSS SOUTH DAKOTA  *****

CITY           SKY/WX    TMP DP  RH WIND       PRES   REMARKS
SIOUX FALLS    FAIR      30  23  75 W8        29.86R WCI  22
BROOKINGS      FAIR      31  22  69 NW8       29.81R WCI  23
WATERTOWN      FAIR      28  18  66 N9        29.80R WCI  19
HURON          FAIR      30  20  66 VRB5      29.85R
SISSETON         N/A     20  14  77 N9        29.85R WCI   9
ABERDEEN       PTSUNNY   21  15  78 E6        29.84S WCI  13
MITCHELL       FAIR      33  24  69 CALM      29.87R
PIERRE         FAIR      31  18  58 W12       29.81S WCI  22
MOBRIDGE       PTSUNNY   23  17  78 S9        29.77R WCI  13
RAPID CITY     FAIR      34  12  40 W5        29.77F
$$

  *****  SOME WEATHER IN NEARBY STATES *****

CITY           SKY/WX    TMP DP  RH WIND       PRES   REMARKS
GLASGOW MT     CLOUDY    21  16  81 W8        29.76R WCI  11
GREAT FALLS MT LGT SNOW  23  19  85 NE12      29.74R VSB 3/4 WCI  12
CHEYENNE WY    FAIR      23   3  42 W17       29.78S WCI   9
SCOTTSBLUFF NE FAIR      20   7  57 NW5       29.87R WCI  13
OMAHA NE       FAIR      38  19  46 W7        29.96R
DES MOINES IA  FAIR      43  25  49 W20       29.92S
DAVENPORT IA   FAIR      40  24  53 SW18      29.96R
CHICAGO IL     PTSUNNY   39  17  41 SW21G38   29.96F
EAU CLAIRE WI  CLOUDY    28  20  71 SW9       29.77S WCI  19
LA CROSSE WI   FAIR      38  22  52 CALM      29.83R
$$

  *****  SOME NATIONAL WEATHER *****

CITY           SKY/WX    TMP DP  RH WIND       PRES   REMARKS
LA GUARDIA NY  FAIR      41  15  35 W18G31    30.01R
RALEIGH NC     FAIR      49  14  24 VRB3      30.20S
ATLANTA GA     FAIR      52  18  26 CALM      30.23S
NEW ORLEANS LA FAIR      62  47  57 E14       30.19S
OKLAHOMA CITY  PTSUNNY   53  30  41 S16       29.91S
ALBUQUERQUE NM PTSUNNY   39  21  48 SW8       29.98S
SALT LAKE CITY PTSUNNY   29  17  61 SE14      29.93F WCI  18
LOS ANGELES CA PTSUNNY   51  46  83 E8        30.01R
BOISE ID       FAIR      34  17  50 SE17      29.82S WCI  23
SEATTLE WA     LGT RAIN  37  35  92 E9        29.69S
$$

*** WEATHER ACROSS MANITOBA...SASKATCHEWAN AND ONTARIO ***
                ***ONTARIO***

CITY           SKY/WX    TMP DP  RH WIND       PRES   REMARKS
GERALDTON      FLURRIES  16   7  67 N5        29.56F WCI   9
THUNDER BAY    LGT SNOW  19  14  79 NW10      29.64S WCI   8
SIOUX LOOKOUT  LGT SNOW   5  -4  66 NW13G18   29.67R DRFTSNOWWCI -12
TORONTO        PTSUNNY   30  18  59 W17       30.04R WCI  18
BIG TROUT LK   SUNNY      3  -4  72 W12       29.59S WCI -13
PICKLE LAKE    FLURRIES   9  -2  61 W7        29.57S WCI  -3
DRYDEN         CLOUDY     7   0  72 W15       29.69R WCI -11
KENORA         FLURRIES   9   0  66 W10G18    29.72R WCI  -6
$$
                *** MANITOBA***

CITY           SKY/WX    TMP DP  RH WIND       PRES   REMARKS
BRANDON        PTSUNNY    7   1  78 SW9       29.75S WCI  -7
DAUPHIN        PTSUNNY   16   9  73 W7        29.71S WCI   6
ISLAND LAKE    MOSUNNY    0  -6  78 W6        29.67S WCI -12
PILOT MOUND      N/A      9   1  72 W8          N/A  WCI  -4
THE PAS        LGT SNOW   5   0  78 CALM      29.66R
THOMPSON       PTSUNNY   -9 -15  77 NW7       29.71S WCI -24
WINNIPEG       MOSUNNY    9   0  66 W8        29.80R WCI  -4
LYNN LAKE      FLURRIES -11 -17  77 N9        29.73R WCI -29
CHURCHILL      CRYSTALS -20 -26  76 NW15      29.70S WCI -45
GILLAM         PTSUNNY  -13 -20  70 W8        29.69R WCI -30
$$
                ***SASKATCHEWAN***

CITY           SKY/WX    TMP DP  RH WIND       PRES   REMARKS
ESTEVAN        CLOUDY    14  12  92 SW9       29.74R WCI   2
KINDERSLEY     FLURRIES  19  12  73 NW16G25   29.76R WCI   5
LLOYDMINSTER   MOSUNNY    5  -4  66 N20G28    29.81R WCI -15
PRINCE ALBERT  CLOUDY    10   0  61 NW14G21   29.75R WCI  -5
REGINA         MOSUNNY   19  14  79 NW15      29.71R WCI   5
YORKTON        FLURRIES  18  12  79 W13       29.67R WCI   4
N. BATTLEFORD  PTSUNNY   10   5  79 NW21G30   29.80R WCI  -9
LA RONGE       PTSUNNY    1  -8  66 N10       29.78R WCI -14
SASKATOON      FLURRIES  16   9  73 N7        29.77R WCI   6
SWIFT CURRENT  CLOUDY    16  14  93 NW16      29.72S WCI   0
$$
NOTE: THESE ARE AUTOMATED STATIONS WITH LIMITED QUALITY CONTROL
      "FAIR" INDICATES FEW OR NO CLOUDS BELOW 12,000 FEET WITH NO
      SIGNIFICANT WEATHER AND/OR OBSTRUCTIONS TO VISIBILITY.
      SKY/WX - SKY CONDITION AND SIGNIFICANT WEATHER.
      TMP - AIR TEMPERATURE.    DP   - DEWPOINT TEMPERATURE.
      RH  - RELATIVE HUMIDITY.  PRES - PRESSURE.
      HX  - HEAT INDEX.         WCI  - WIND CHILL INDEX.
$




USA.gov is the U.S. government's official web portal to all federal, state and local government web resources and services.